Temperature
19 19 19 19 18 17 19 19 19 20 20 20 19 19 19 18 18 18 18 18 18 18 18 18 18 18 18 18 18 18 18 17 17 17 17 17 17 17 17 17 17 17 17 17 17 17 17 17 17
19 19 19 19 17 18 19 20 20 20 20 20 20 19 19 18 18 18 18 18 18 18 18 18 18 18 18 18 18 18 17 17 17 17 17 17 17 17 17 16 16 16 17 17 17 17 17 17 17
19 19 19 17 18 18 20 20 20 20 20 20 20 19 19 18 18 18 18 18 18 18 18 18 18 18 18 17 17 17 17 17 17 16 16 16 16 16 16 16 16 16 16 16 17 17 17 17 17
19 19 19 17 19 19 20 20 20 20 21 20 20 19 18 18 19 18 18 18 18 18 18 18 18 17 17 17 17 17 16 16 16 16 16 16 16 16 16 16 16 16 16 16 16 16 16 17 17
19 19 18 18 19 20 19 19 20 20 20 20 19 18 18 18 19 19 18 18 18 18 18 17 17 17 17 17 16 16 16 16 16 16 16 16 16 16 15 15 15 15 16 16 16 16 16 16 16
19 17 17 18 19 19 19 19 20 20 19 20 19 18 18 18 19 19 18 18 18 18 18 17 17 17 17 16 16 16 16 16 16 15 15 15 15 15 15 15 15 15 15 15 15 16 16 16 16
18 16 18 19 19 19 20 20 20 19 19 19 19 18 18 18 19 19 18 18 18 18 18 17 17 17 16 16 16 16 16 15 15 15 15 15 15 15 15 15 15 15 15 15 15 15 15 15 16
19 16 18 18 19 19 19 19 20 20 19 20 20 18 18 18 18 18 18 18 18 18 18 17 17 17 17 16 16 16 15 15 15 15 15 15 15 15 15 15 15 14 14 14 14 15 15 15 15
18 16 17 18 19 19 19 20 20 20 20 19 20 20 20 19 19 18 18 18 18 18 18 17 17 17 16 16 16 16 16 15 15 15 15 15 15 15 15 15 15 14 14 14 14 15 15 15 15
18 17 18 19 19 19 19 20 20 20 19 19 19 20 19 19 19 19 19 19 18 18 18 18 17 17 17 16 16 16 16 15 15 15 15 15 15 15 15 15 14 14 14 14 14 15 15 15 15
18 17 18 19 19 19 20 20 20 19 19 19 19 19 19 19 19 19 19 19 19 18 18 18 17 17 17 16 16 16 16 16 15 15 15 15 15 15 15 15 14 14 14 14 14 15 15 15 15
17 18 18 19 20 20 20 20 19 20 20 21 20 20 19 19 19 19 19 19 19 19 18 18 18 17 17 17 16 16 16 16 15 15 15 15 15 15 14 14 14 14 14 14 14 14 14 15 15
18 18 19 19 20 20 20 20 20 20 20 20 20 20 20 19 19 19 19 19 19 19 19 18 18 18 17 17 17 16 16 16 15 15 15 15 15 14 14 14 14 14 14 14 14 14 14 15 15
18 18 19 19 19 20 20 19 20 20 20 20 20 20 20 20 20 20 19 19 19 19 19 19 18 18 17 17 17 16 16 16 15 15 15 14 14 14 14 14 14 14 14 14 14 14 14 15 15
19 18 19 19 19 19 20 19 19 20 20 20 20 20 20 20 20 20 20 20 20 19 19 19 18 18 18 17 17 16 16 16 15 15 15 14 14 14 14 14 14 14 14 14 14 14 14 15 15
18 18 18 19 19 20 20 19 19 20 20 20 20 20 20 20 20 20 20 20 20 20 19 19 18 18 18 17 17 16 16 16 15 15 15 14 14 14 14 14 14 14 14 14 14 14 14 15 15
17 17 18 18 19 19 19 19 18 19 20 19 20 20 20 20 20 20 20 20 20 20 19 19 19 18 18 17 17 16 16 16 15 15 15 14 14 14 14 14 14 14 14 14 14 14 14 15 15
17 17 18 18 19 19 18 18 18 19 19 19 20 20 20 20 21 21 20 20 20 20 19 19 19 18 18 17 17 17 16 16 15 15 15 14 14 14 14 14 14 14 14 14 14 14 14 14 15
17 18 18 18 19 19 18 18 18 18 19 19 19 20 20 21 21 21 21 20 20 20 19 19 19 18 18 17 17 17 16 16 15 15 15 14 14 14 14 14 14 14 14 14 14 14 14 14 14
18 17 17 18 19 19 18 18 18 18 18 19 19 19 20 20 20 21 21 20 20 20 20 19 19 19 18 18 17 17 16 16 15 15 15 14 14 14 14 14 14 14 14 14 14 14 14 14 14
18 17 17 18 18 18 18 18 18 18 18 19 19 20 20 20 21 21 21 20 20 20 20 20 19 19 18 18 17 17 16 16 16 15 15 15 14 14 14 14 14 14 14 14 14 14 14 14 14
17 18 18 18 17 17 18 17 18 18 18 18 18 19 20 20 21 21 21 21 20 20 20 19 19 19 18 18 17 17 17 16 16 15 15 15 15 14 14 14 14 14 14 14 14 14 14 14 14
17 17 17 17 17 17 17 17 17 18 18 18 18 18 20 20 21 21 21 21 20 20 20 19 19 19 18 18 17 17 17 16 16 15 15 15 15 15 14 14 14 14 14 14 14 14 14 14 14
17 17 16 15 16 17 17 17 17 16 17 18 18 18 19 20 20 20 20 20 20 20 19 19 19 18 18 18 17 17 17 16 16 15 15 15 15 15 15 14 14 14 14 14 14 14 14 14 14
17 16 16 16 16 16 17 17 17 18 18 18 18 18 19 19 20 20 20 20 20 20 19 19 19 18 18 18 17 17 17 16 16 16 15 15 15 15 15 15 15 14 14 14 14 14 14 14 14
16 16 16 16 16 16 17 17 18 18 18 19 19 19 19 19 20 20 20 20 20 20 19 19 19 18 18 18 17 17 16 16 16 16 15 15 15 15 15 15 15 15 14 14 14 14 14 14 14
16 16 16 16 16 16 16 17 18 17 17 17 18 18 19 19 19 20 20 20 20 19 19 19 18 18 18 17 17 17 16 16 16 16 16 15 15 15 15 15 15 15 15 14 14 14 14 14 14
17 16 15 16 16 17 17 17 17 17 17 16 16 17 18 19 19 19 19 19 19 19 19 18 18 18 18 17 17 17 16 16 16 16 15 15 15 15 15 15 15 15 15 14 14 14 14 14 14
16 16 16 15 16 16 17 17 18 18 17 17 17 18 19 19 19 19 19 19 19 19 19 18 18 18 17 17 17 17 16 16 16 15 15 15 15 15 15 15 15 15 15 14 14 14 14 14 14
18 17 16 17 16 15 16 17 19 17 17 18 18 18 19 19 19 19 19 19 19 18 18 18 18 18 17 17 17 16 16 16 16 15 15 15 15 15 15 15 15 15 15 14 14 14 14 14 14
Wind_Speed
5 3 2 3 5 5 2 2 1 1 1 2 3 5 6 5 3 5 1 5 6 5 6 8 9 10 10 11 11 11 11 11 11 11 10 10 9 9 9 8 8 7 7 7 7 7 6 6 6
2 1 4 4 5 3 2 2 1 0 3 4 4 4 5 5 4 6 3 5 7 6 7 8 10 10 10 10 10 11 11 11 10 10 10 9 9 8 8 8 7 7 7 6 6 6 6 6 6
2 3 3 4 3 3 1 1 0 2 3 2 4 5 4 4 5 4 4 7 7 6 7 8 9 9 9 10 10 10 10 10 10 9 9 8 8 8 7 7 7 6 6 6 6 6 6 5 6
3 4 4 4 2 1 2 1 1 3 3 4 4 5 4 3 5 5 8 8 7 5 6 7 9 9 9 10 10 9 9 8 8 8 8 8 7 7 7 7 6 6 6 6 6 6 6 5 5
4 4 4 2 1 1 0 0 2 2 2 3 4 5 4 4 8 10 9 8 7 5 5 6 8 9 9 9 9 8 8 7 7 7 7 7 6 6 6 6 6 6 5 5 5 5 6 5 5
4 4 4 1 1 1 1 2 2 3 3 4 4 5 3 3 8 8 7 6 6 5 5 5 7 7 7 8 7 7 7 6 6 6 6 6 5 5 5 5 5 5 5 5 5 5 5 5 5
4 3 3 2 0 1 1 1 3 4 4 3 4 5 3 3 5 7 6 6 5 4 4 3 4 4 5 5 5 5 5 5 5 5 5 5 5 5 5 5 5 5 5 5 6 6 5 5 5
4 4 2 1 1 1 1 1 3 3 3 3 3 6 5 5 6 7 6 5 4 3 2 2 2 3 3 3 3 3 3 4 5 6 6 6 7 7 6 6 6 5 6 6 7 7 7 6 6
3 4 2 3 3 2 0 2 2 3 5 3 2 3 5 10 9 8 5 3 2 2 1 1 1 1 1 1 2 4 5 7 7 8 8 7 7 7 7 7 6 6 6 7 8 8 7 7 6
4 3 4 2 2 2 1 2 3 4 5 3 4 5 9 11 10 9 7 6 5 4 3 2 2 1 0 1 3 4 5 6 6 6 6 6 6 7 7 8 8 9 9 8 9 9 8 8 6
3 4 2 1 1 2 2 2 2 6 4 5 7 9 10 9 9 8 7 6 6 5 4 4 3 2 1 1 2 3 3 4 5 6 5 5 6 6 7 7 8 9 8 8 8 8 8 7 6
2 1 2 1 1 1 2 3 3 3 4 6 9 12 10 10 9 9 8 6 5 4 5 4 3 2 2 1 1 1 2 3 3 4 4 5 4 4 5 5 6 7 6 6 6 5 6 6 5
1 1 0 0 1 1 3 2 3 1 3 7 9 10 10 9 8 6 6 5 5 5 4 3 3 3 2 1 1 2 2 3 3 4 5 5 4 3 3 4 5 6 6 5 4 4 4 4 5
2 1 1 1 2 1 3 2 3 1 6 8 9 9 8 8 7 5 5 5 6 5 4 3 3 3 3 2 2 2 3 4 4 5 5 5 5 3 3 3 4 5 6 5 4 3 3 3 3
1 3 3 2 1 1 4 2 1 2 6 7 7 7 7 6 6 7 7 6 7 5 4 4 4 4 4 4 3 4 4 4 4 4 5 5 5 4 4 3 3 5 6 6 5 4 4 3 3
3 4 2 2 0 1 5 2 1 3 8 8 6 6 5 5 6 6 6 6 6 5 5 5 5 5 5 4 4 4 4 5 4 4 5 6 6 5 4 3 3 6 6 5 3 3 3 3 3
4 3 2 2 1 1 3 3 1 2 6 7 7 6 5 4 5 5 6 6 6 7 6 5 6 6 5 5 5 5 5 4 4 4 4 5 5 5 4 3 3 6 4 4 4 3 2 3 3
3 3 2 1 1 2 3 1 1 1 5 6 6 5 5 5 6 4 5 6 6 6 6 7 6 6 6 5 4 4 4 3 3 3 3 4 4 5 5 3 5 5 4 4 4 4 3 2 2
4 4 2 1 1 2 2 1 1 1 3 4 5 5 6 5 3 2 4 6 6 6 6 7 7 5 5 3 3 3 1 1 2 2 3 4 4 5 4 3 4 4 4 4 4 3 4 4 3
4 3 1 1 1 2 2 1 2 1 2 4 5 6 6 4 2 3 4 5 6 6 7 7 7 6 5 3 3 2 2 1 0 2 3 4 4 4 4 3 3 3 4 5 5 4 3 3 4
2 4 4 2 2 4 3 3 2 1 1 1 1 3 5 7 6 5 4 5 6 6 7 7 7 6 5 5 4 3 3 3 2 2 2 3 4 3 3 3 2 3 3 3 4 4 4 3 3
2 2 3 3 4 1 2 1 4 1 1 2 2 2 4 5 5 5 5 6 6 5 5 6 6 6 5 5 5 4 3 1 1 1 2 3 4 3 3 3 3 2 2 3 3 3 2 2 3
3 3 5 4 4 3 2 3 5 1 3 5 5 3 3 4 6 5 5 6 5 5 5 6 6 5 4 5 5 5 3 1 0 1 2 3 3 4 3 3 3 2 2 3 3 3 3 2 2
6 6 7 5 4 1 2 3 5 5 8 6 5 5 4 4 5 4 3 5 5 5 5 6 6 5 4 5 4 4 4 2 1 1 1 2 3 3 3 3 2 2 2 2 2 2 3 2 2
5 6 3 2 1 4 2 3 7 6 7 8 9 7 5 5 5 5 5 5 6 6 6 6 7 5 4 5 4 3 4 3 2 1 0 1 2 2 3 2 2 2 2 2 2 2 3 2 2
6 6 6 5 5 3 1 5 6 3 3 5 6 7 6 6 5 6 6 6 6 7 7 7 7 6 5 5 4 3 3 2 1 1 1 1 1 2 2 2 2 2 2 2 2 2 2 2 2
7 4 4 5 2 1 4 5 6 2 4 6 7 7 7 6 6 6 5 5 6 6 6 7 8 6 5 5 4 3 2 2 1 1 1 0 1 1 2 2 2 2 2 2 2 2 2 2 2
6 7 5 5 5 2 3 4 5 6 8 8 9 9 8 7 6 6 5 5 5 5 5 6 6 6 5 4 4 3 2 1 1 2 2 1 2 2 2 3 2 3 3 2 2 2 2 3 3
5 4 4 4 4 5 3 7 7 11 12 13 12 11 10 9 8 6 5 5 6 6 6 6 6 5 5 4 3 3 2 2 2 2 1 1 2 2 2 2 2 3 3 3 2 2 2 3 3
6 7 7 5 4 4 4 7 4 8 10 12 12 10 9 9 7 6 6 6 6 6 6 6 5 5 4 4 4 3 3 3 3 2 2 2 2 2 2 2 3 3 3 3 2 3 3 3 4
Wind_Direction
336 9 64 51 51 50 36 349 314 0 66 57 75 81 87 74 87 127 121 123 117 112 113 113 112 109 105 101 98 96 93 91 90 88 87 85 84 82 79 76 75 75 75 73 65 58 55 51 46
358 33 49 56 76 66 342 327 321 246 145 138 90 80 77 72 78 107 123 126 117 116 113 113 111 108 106 104 100 97 94 92 90 88 86 83 79 77 73 69 67 65 65 64 58 50 45 38 35
20 46 68 68 90 149 193 267 201 74 120 106 80 58 74 96 115 130 146 128 112 109 112 119 115 111 108 104 100 96 93 90 88 86 83 80 76 73 70 65 60 56 53 50 48 39 33 28 24
65 43 57 72 84 223 214 222 122 100 87 56 88 69 58 80 133 137 132 124 117 108 114 125 122 115 109 103 99 97 93 89 86 83 79 75 71 67 62 57 51 47 42 35 31 24 18 14 10
61 70 62 55 333 312 286 138 114 103 76 59 85 84 51 25 110 124 130 130 128 119 119 127 124 117 111 104 99 94 91 88 83 79 74 68 63 57 49 42 37 34 30 24 17 11 6 1 357
55 65 89 135 317 353 8 41 93 87 88 84 87 93 68 108 124 136 134 131 130 127 121 125 128 122 115 109 102 98 92 84 78 72 62 54 45 39 32 27 21 19 14 10 7 1 356 355 351
98 96 137 164 164 349 68 66 114 112 104 107 107 97 105 155 152 137 127 120 116 118 115 100 98 110 113 108 104 97 88 76 65 54 43 35 28 20 15 9 6 6 1 358 357 352 348 344 343
114 104 107 155 162 252 340 68 103 108 110 100 100 129 163 188 144 115 100 95 101 105 101 102 90 80 68 57 75 77 59 45 36 29 24 24 19 11 6 2 359 358 355 354 357 356 353 349 345
90 82 160 197 184 217 123 105 80 81 101 77 77 138 159 138 126 116 106 97 125 173 174 138 143 79 51 16 14 27 23 22 21 18 20 27 20 13 9 9 9 6 4 2 2 2 1 1 358
92 139 208 211 195 180 135 116 117 100 91 86 71 80 117 130 141 149 161 174 191 210 221 211 214 213 316 341 18 14 13 18 18 17 21 24 26 24 25 21 23 23 20 16 13 10 12 12 7
137 181 219 261 209 160 131 111 91 123 130 167 154 146 140 144 158 171 182 189 201 211 223 208 205 203 195 307 1 7 13 21 26 30 31 39 46 40 35 28 21 21 22 18 11 13 13 11 8
146 231 205 244 141 123 136 121 102 144 185 168 158 151 152 162 174 184 191 196 194 200 218 214 183 176 195 214 352 33 39 37 34 33 48 63 55 42 32 27 16 17 14 9 8 5 6 11 10
160 273 276 227 85 116 107 103 124 109 126 123 135 146 162 174 182 190 194 192 187 197 205 202 177 170 164 139 77 84 80 69 61 59 57 67 68 52 37 24 22 18 14 8 0 360 2 6 7
207 174 355 23 72 96 117 92 98 117 124 129 149 166 176 180 182 182 183 189 193 195 192 180 165 159 146 129 117 107 97 88 82 66 57 67 72 64 45 28 18 11 4 359 356 354 355 352 1
146 75 30 18 79 130 110 59 139 159 133 149 171 181 185 193 189 194 191 191 192 187 175 165 158 140 135 132 127 110 102 99 81 65 60 61 61 56 50 30 10 357 356 1 8 9 15 14 14
86 78 50 322 76 153 132 189 236 150 151 171 185 193 196 206 206 207 193 188 179 167 161 160 145 130 126 121 109 104 100 92 76 64 57 54 56 58 53 32 5 357 4 11 10 15 16 14 13
58 112 150 317 311 119 133 196 244 146 163 182 194 201 204 212 224 217 194 183 172 166 157 142 130 128 120 105 95 91 86 75 65 57 51 49 50 52 54 36 7 7 15 13 11 23 22 15 7
153 136 137 201 272 137 140 191 284 159 166 190 195 203 210 214 228 217 186 172 161 154 147 138 128 121 111 94 84 70 61 48 47 41 33 37 38 40 45 34 15 18 21 13 13 19 22 23 5
139 129 134 247 246 140 162 173 261 186 157 192 200 203 217 228 241 192 169 158 150 146 145 145 141 138 127 112 109 103 85 39 22 12 15 26 31 33 41 29 16 19 24 11 9 16 23 20 9
122 125 119 342 67 126 122 27 305 186 181 200 199 204 208 205 188 173 159 156 158 158 156 154 154 155 153 138 131 131 127 102 26 339 3 17 20 23 34 37 20 14 18 18 19 25 25 20 24
155 164 173 169 74 63 86 3 335 324 49 88 175 200 195 197 193 181 162 158 156 159 163 163 160 159 153 134 113 89 64 43 21 1 346 344 358 14 28 28 29 21 28 16 13 22 42 31 17
198 194 153 136 110 62 111 192 282 266 245 227 213 189 189 186 175 171 165 162 164 161 149 146 151 152 148 142 138 136 135 145 250 286 313 332 353 4 13 13 24 25 22 18 9 35 38 56 29
159 93 88 92 99 64 53 136 275 185 213 224 217 201 188 176 164 164 170 168 150 139 139 137 137 138 138 137 138 129 127 150 271 353 347 346 348 358 4 8 18 17 10 10 19 28 41 53 57
118 84 63 52 67 47 221 158 252 218 206 201 196 187 173 155 145 140 132 123 117 119 123 127 129 126 125 124 125 133 138 141 110 32 353 338 338 342 356 6 10 4 3 4 13 27 43 46 57
107 103 81 55 49 244 225 194 243 235 207 189 183 179 168 154 146 140 132 131 131 130 133 133 131 126 125 123 123 132 142 146 154 178 271 323 336 333 332 353 348 351 344 353 23 38 33 32 44
163 145 155 171 192 250 211 229 254 274 192 156 152 155 152 150 150 147 145 142 139 138 137 135 134 131 130 129 124 114 123 127 145 161 168 257 275 289 310 336 349 352 357 9 28 34 17 26 27
142 165 163 130 127 150 260 281 302 110 133 145 146 149 159 159 153 146 138 138 139 140 143 146 140 132 134 133 123 114 115 113 115 98 89 346 306 320 347 1 2 359 7 20 36 27 4 11 13
139 142 121 129 148 210 271 264 236 202 189 176 171 174 173 161 153 144 139 139 137 138 134 133 136 137 133 130 132 128 125 114 100 82 62 23 352 2 18 18 15 10 7 8 35 21 3 18 4
131 140 134 130 160 160 217 260 223 199 188 184 187 181 173 170 166 157 146 139 132 128 129 131 134 130 129 132 126 116 105 90 83 70 36 18 11 17 29 27 32 25 16 9 25 11 8 10 1
162 173 156 160 199 180 184 263 275 205 188 180 178 173 169 166 161 152 144 136 132 134 137 138 140 139 140 135 123 117 101 86 77 57 23 24 26 21 25 35 40 32 27 23 24 6 13 12 1
Height
1510 1509 1509 1510 1513 1521 1523 1519 1516 1515 1514 1515 1514 1515 1517 1520 1524 1530 1528 1527 1528 1529 1530 1530 1531 1531 1532 1532 1532 1532 1533 1533 1533 1534 1534 1534 1535 1535 1535 1535 1536 1536 1536 1536 1536 1536 1536 1536 1536
1509 1510 1511 1511 1519 1530 1526 1517 1516 1514 1514 1515 1516 1517 1518 1521 1523 1525 1527 1528 1529 1530 1531 1531 1532 1532 1532 1533 1533 1533 1533 1534 1534 1534 1535 1535 1535 1535 1536 1536 1536 1536 1536 1536 1536 1536 1536 1536 1536
1510 1510 1512 1514 1522 1528 1523 1516 1515 1514 1515 1516 1517 1519 1521 1523 1525 1527 1528 1529 1530 1531 1532 1533 1533 1533 1533 1533 1534 1534 1534 1535 1535 1535 1535 1535 1535 1535 1536 1536 1536 1536 1536 1536 1536 1536 1535 1535 1535
1511 1512 1513 1519 1522 1519 1517 1515 1514 1515 1516 1517 1518 1521 1524 1526 1527 1528 1529 1531 1532 1533 1533 1534 1535 1535 1535 1535 1535 1535 1535 1535 1536 1536 1536 1536 1536 1536 1536 1536 1536 1535 1535 1535 1535 1535 1535 1535 1535
1511 1512 1517 1523 1520 1516 1515 1514 1515 1515 1517 1518 1519 1523 1526 1528 1529 1530 1531 1532 1533 1534 1535 1536 1536 1536 1536 1536 1536 1536 1536 1537 1537 1537 1537 1537 1537 1536 1536 1536 1536 1535 1535 1535 1535 1534 1534 1534 1534
1512 1513 1524 1527 1521 1516 1515 1515 1515 1516 1518 1520 1521 1524 1528 1530 1531 1532 1533 1534 1535 1536 1537 1537 1538 1538 1538 1538 1538 1538 1538 1538 1538 1538 1538 1538 1538 1537 1537 1537 1536 1535 1535 1534 1534 1534 1534 1533 1533
1513 1517 1522 1522 1521 1518 1516 1515 1516 1517 1519 1521 1522 1525 1529 1531 1533 1534 1535 1536 1537 1538 1538 1539 1539 1540 1540 1540 1540 1540 1540 1540 1540 1540 1540 1539 1539 1538 1538 1537 1536 1536 1535 1534 1534 1533 1533 1533 1533
1513 1517 1521 1523 1521 1519 1516 1516 1516 1518 1520 1522 1523 1526 1529 1531 1533 1535 1537 1538 1539 1539 1540 1541 1541 1541 1541 1542 1542 1542 1542 1542 1542 1541 1541 1540 1540 1539 1538 1538 1537 1536 1535 1535 1534 1533 1533 1533 1532
1513 1521 1525 1522 1520 1517 1515 1516 1518 1519 1520 1522 1524 1526 1529 1531 1534 1536 1537 1539 1540 1541 1542 1543 1543 1543 1543 1543 1543 1543 1543 1543 1543 1542 1542 1541 1540 1540 1539 1538 1537 1536 1536 1535 1534 1533 1533 1532 1532
1514 1522 1520 1516 1515 1515 1515 1516 1518 1519 1521 1523 1525 1527 1530 1532 1534 1536 1538 1540 1541 1542 1543 1544 1544 1545 1545 1545 1545 1545 1545 1544 1544 1543 1542 1542 1541 1540 1539 1538 1537 1536 1535 1535 1534 1533 1533 1532 1532
1513 1517 1515 1515 1514 1515 1515 1517 1518 1519 1522 1523 1524 1527 1530 1533 1535 1537 1539 1541 1542 1543 1544 1545 1546 1546 1546 1546 1546 1546 1546 1545 1545 1544 1543 1542 1541 1541 1540 1538 1537 1536 1535 1534 1533 1532 1532 1532 1532
1514 1514 1515 1515 1515 1515 1516 1517 1519 1519 1521 1523 1525 1527 1530 1533 1535 1538 1540 1542 1543 1544 1545 1546 1547 1547 1547 1547 1547 1547 1546 1546 1545 1545 1544 1543 1542 1541 1540 1538 1537 1536 1535 1534 1533 1532 1531 1531 1531
1514 1514 1514 1515 1515 1516 1517 1518 1519 1521 1522 1524 1527 1529 1531 1534 1536 1539 1541 1543 1544 1545 1546 1547 1548 1548 1548 1548 1548 1548 1547 1547 1546 1545 1544 1543 1542 1541 1540 1538 1537 1536 1534 1533 1532 1531 1531 1531 1531
1513 1514 1514 1515 1515 1517 1518 1519 1520 1522 1523 1525 1528 1530 1532 1535 1537 1539 1541 1543 1544 1546 1547 1548 1548 1549 1549 1549 1549 1549 1548 1548 1547 1546 1545 1544 1542 1541 1540 1538 1537 1535 1534 1533 1532 1531 1530 1530 1530
1513 1514 1516 1515 1516 1517 1519 1522 1521 1522 1524 1526 1528 1531 1533 1535 1537 1539 1541 1543 1545 1546 1548 1549 1549 1550 1550 1550 1550 1550 1549 1549 1548 1547 1545 1544 1543 1542 1540 1539 1537 1535 1534 1533 1532 1531 1530 1530 1530
1514 1518 1523 1518 1517 1517 1522 1528 1522 1523 1525 1527 1529 1531 1533 1535 1537 1539 1542 1544 1545 1547 1548 1549 1550 1551 1551 1551 1551 1551 1550 1550 1549 1548 1546 1545 1543 1542 1541 1539 1537 1536 1534 1533 1532 1531 1530 1530 1529
1520 1526 1525 1521 1517 1518 1522 1526 1523 1523 1525 1526 1528 1530 1532 1535 1537 1539 1541 1543 1545 1547 1549 1550 1551 1551 1552 1552 1552 1552 1551 1551 1550 1549 1547 1546 1544 1543 1542 1540 1538 1537 1535 1534 1533 1531 1530 1530 1530
1526 1526 1525 1524 1519 1519 1523 1525 1523 1523 1524 1526 1528 1530 1531 1534 1536 1538 1541 1543 1545 1547 1549 1550 1551 1552 1553 1553 1553 1552 1552 1552 1551 1550 1549 1547 1546 1544 1543 1541 1540 1538 1536 1535 1534 1532 1531 1531 1530
1519 1523 1525 1523 1519 1521 1524 1525 1524 1523 1524 1526 1527 1529 1531 1533 1536 1538 1540 1542 1545 1547 1549 1550 1552 1553 1553 1553 1553 1553 1553 1552 1552 1551 1550 1548 1547 1546 1544 1543 1541 1539 1538 1536 1535 1534 1533 1532 1531
1519 1524 1526 1523 1519 1521 1525 1526 1524 1523 1524 1525 1526 1528 1530 1532 1534 1537 1539 1542 1544 1546 1548 1550 1552 1553 1553 1554 1554 1554 1554 1553 1553 1552 1551 1550 1548 1547 1545 1544 1542 1541 1539 1538 1536 1535 1534 1533 1532
1521 1524 1525 1525 1522 1523 1526 1530 1527 1524 1524 1524 1525 1527 1528 1531 1533 1536 1538 1541 1543 1546 1548 1550 1551 1553 1554 1554 1554 1554 1554 1554 1553 1553 1552 1551 1550 1548 1547 1545 1544 1542 1541 1540 1538 1537 1536 1535 1534
1524 1519 1520 1523 1529 1535 1531 1543 1530 1526 1525 1524 1524 1525 1527 1529 1532 1534 1537 1540 1542 1545 1547 1550 1551 1553 1553 1554 1554 1555 1554 1554 1554 1553 1553 1552 1551 1549 1548 1547 1545 1544 1543 1541 1540 1539 1537 1537 1536
1519 1517 1520 1524 1530 1536 1534 1541 1536 1526 1527 1525 1524 1524 1526 1528 1531 1533 1536 1539 1542 1544 1547 1549 1551 1552 1553 1554 1554 1555 1555 1554 1554 1553 1553 1552 1551 1550 1549 1548 1546 1545 1544 1543 1542 1540 1539 1539 1537
1516 1520 1524 1530 1535 1544 1536 1540 1538 1528 1523 1521 1522 1523 1525 1528 1530 1533 1536 1538 1541 1544 1546 1548 1550 1552 1553 1553 1554 1554 1554 1554 1554 1554 1553 1553 1552 1551 1550 1548 1547 1546 1545 1544 1543 1542 1541 1540 1539
1518 1529 1542 1546 1549 1547 1535 1537 1533 1517 1515 1516 1519 1521 1524 1527 1529 1532 1535 1537 1540 1542 1545 1547 1549 1551 1552 1553 1554 1554 1554 1554 1554 1554 1553 1553 1552 1551 1550 1549 1548 1547 1546 1545 1544 1543 1543 1542 1541
1520 1525 1541 1549 1550 1545 1535 1536 1523 1513 1512 1514 1517 1520 1523 1526 1528 1531 1534 1536 1539 1542 1544 1546 1548 1550 1552 1553 1553 1554 1554 1554 1554 1554 1553 1553 1553 1552 1551 1550 1549 1548 1547 1546 1545 1545 1544 1543 1542
1520 1525 1525 1536 1540 1544 1540 1530 1518 1512 1512 1514 1516 1519 1522 1525 1528 1530 1533 1536 1539 1541 1544 1546 1548 1550 1551 1552 1553 1554 1554 1554 1554 1554 1553 1553 1553 1552 1552 1551 1550 1549 1548 1547 1546 1545 1544 1544 1543
1512 1518 1529 1536 1545 1548 1538 1532 1525 1515 1513 1513 1515 1517 1520 1524 1527 1530 1533 1535 1538 1541 1543 1546 1547 1549 1550 1552 1552 1553 1553 1553 1553 1553 1553 1553 1553 1552 1551 1551 1550 1549 1548 1548 1547 1546 1545 1544 1543
1516 1520 1524 1531 1533 1544 1545 1532 1505 1504 1505 1508 1511 1514 1518 1522 1525 1529 1532 1535 1537 1540 1543 1545 1547 1548 1550 1551 1552 1552 1553 1553 1553 1553 1553 1552 1552 1552 1551 1550 1550 1549 1548 1548 1547 1546 1545 1544 1543
1505 1511 1519 1528 1532 1534 1537 1526 1497 1497 1499 1503 1507 1512 1517 1521 1525 1528 1531 1534 1537 1539 1542 1544 1546 1547 1549 1550 1551 1552 1552 1552 1552 1552 1552 1552 1551 1551 1551 1550 1549 1549 1548 1547 1546 1545 1545 1544 1543